Location: Ferchesar
(52.6477°N, 12.4298°E)
Time: 06:40:26
(UTC+01:00)

Transit 2A Rocket - Pass Details

Date: 14 December 2021
Orbit: 585 x 917 km, 66.7° (Epoch: 25 January)

Event Time Altitude Azimuth Distance (km) Brightness Sun altitude
Rises 07:05:56 0° 244° (WSW) 3,436 8.0 -9.6°
Reaches altitude 10° 07:08:29 10° 251° (WSW) 2,538 7.3 -9.3°
Maximum altitude 07:14:10 45° 323° (NW) 1,231 5.7 -8.5°
Drops below altitude 10° 07:20:03 10° 36° (NE) 2,622 7.9 -7.7°
Sets 07:22:44 0° 42° (NE) 3,560 8.6 -7.3°
